FENGYUN 1C DEB

Satellite information

Favourite Embed

Satellite Type and Status

DEBRISIN ORBIT

Key statistics

Satellite FENGYUN 1C DEB at a glance.

Uptime

9714

Days in orbit

Revolutions

≈ 14.1

Per day

Orbit

SSO

Sun Synchronous Orbit

Inclination

100.3

Latest

Satellite identification and parameters

Extended collection of information and parameters for FENGYUN 1C DEB.

Object identification

Identified? True

Debris? True

Object name: FENGYUN 1C DEB

International designator: 1999-025FBS

Object number (NORAD): 47040

Object ID (CCSDS): 47040

Country: PEOPLES REPUBLIC OF CHINA (PRC)

Current information (Y/N): Y

RCS size: SMALL

Orbital parameters

Period: 102.383 minutes

Inclination: 100.2943 deg

SMA: 7249.566 km

Apoapsis: 916.904 km

Periapsis: 825.958 km

RAAN: 251.5252 deg

Eccentricy: 0.00627252

Argument of periapsis: 237.4301 deg

Mean anomaly: 122.0795 deg

Mean motion: 14.06483958 rev/day

Mean motion (dot): 0.00001028 rev/day2

B* drag term: 0.00064394729 1/REarth

Two-line elements (TLE)

Creation date: Dec. 11, 2025, 10:54 a.m.

Reference frame: TEME

Reference center: EARTH

Epoch: Dec. 10, 2025, 11:56 p.m. UTC

TLE line 0: 0 FENGYUN 1C DEB

TLE line 1: 1 47040U 99025FBS 25344.99764266 .00001028 00000-0 64395-3 0 9998

TLE line 2: 2 47040 100.2943 251.5252 0062725 237.4301 122.0795 14.06483958890843

Live tracking on map

Real-time ground track for satellite FENGYUN 1C DEB.

In-orbit conjunctions

A list of the most updated potential collisions computed for object FENGYUN 1C DEB.

Target Orbit TCA Probability of collision Miss distance Type
METEOR 2-5 LEO 2025-12-02 17:50:01 0.0002201742 279.0 (m) PAYLOAD
FENGYUN 1C DEB SSO 2025-08-27 13:41:15 0.0001048539 104.0 (m) DEBRIS
PSLV R/B LEO 2025-08-10 09:06:24 0.0001375139 132.0 (m) ROCKET BODY
COSMOS 970 DEB LEO 2024-11-11 13:56:45 0.0001781519 713.0 (m) DEBRIS

Associated space launch

Chinese polar orbiting meteorological satellite

FENGYUN 1C DEB was lifted into orbit during the mission ‘Long March 4B | Feng Yun 1C’, on board a Long March 4B space rocket.

The launch took place on May 10, 1999, 1:33 a.m. from Launch Complex 7.

For more information about the launch, click the button.

Launch to space Long March 4B | Feng Yun 1C
Long March 4B | Feng Yun 1C

Agency: N/A

Status: Launch Successful

Launch date: May 10, 1999, 1:33 a.m. UTC

Rocket: Long March 4B

Launch pad: Launch Complex 7

Location: Taiyuan Satellite Launch Center, People's Republic of China

...

Latest news about this satellite

There are no fresh news available about this satellite. Check back as we update our databases every day.


Newsletter sign-up

Weekly statistics, charts and insights to help you stay on top of the space industry.